sat.trackr.live / text

‹ back to catalog

STARLINK-35907

NORAD 66498 · 2025-263P

PAYLOAD ACTIVE UNKNOWN

§ Identity

Operator
Country
US
Launch date
2025-11-15
Launch site
AFETR
Launch vehicle
Mass (kg)
RCS (m²)

Purposes: comms

External: N2YO · Heavens-Above · Gunter

§ Orbital elements

Epoch: 2026-09-20T21:55:40.555776Z

Period
94.27 min
Inclination
43.0020°
Eccentricity
0.0001341
Mean motion
15.27582265 rev/d
Perigee alt
482.1 km
Apogee alt
484.0 km
Semi-major
6,861.2 km
B*
4.5540e-4
RAAN
328.3697°
Arg perigee
264.5646°
Mean anomaly
95.5053°
Rev number
4,875

§ Raw data

STARLINK-359071 66498U 25263P   26263.91366384  .00012291  00000+0  45540-3 0  99952 66498  43.0020 328.3697 0001341 264.5646  95.5053 15.27582265 48758

JSON: /api/v1/satellites/66498 · /tle

For live sub-satellite position, see the globe view (requires WebGL).

§ Visibility from observer

Set your observer location to see the next 7 days of passes ≥ 10°. The values pass through the URL so the page stays shareable.

No JS? Fill the form by hand. The geolocation button needs JavaScript.